Simultaneous Nadir Overpasses (SNOs) Predictions

Prediction of SNOs between METOP-C and LANDSAT-8 Satellite Orbit:

Table of predicted SNOs for the next 14.0 days since TLE Epoch: 9/18/2021
Index Date (METOP-C) Time (METOP-C) Lat,Lon (METOP-C) SZA (METOP-C ) Date (LANDSAT-8) Time (LANDSAT-8) Lat,Lon (LANDSAT-8) SZA (LANDSAT-8 ) Distance(km) Time Diff (sec)
1 09/19/2021 19:33:46 81.17, -72.92 82.28 09/19/2021 19:34:45 81.17, -72.87 82.31 0.94 59
2 09/19/2021 20:24:25 -81.19, 95.04 97.63 09/19/2021 20:24:11 -81.19, 95.06 97.64 0.36 14
3 09/22/2021 15:08:05 81.18, -6.14 83.44 09/22/2021 15:09:00 81.18, -6.25 83.45 1.93 55
4 09/22/2021 15:58:45 -81.19, 161.52 96.51 09/22/2021 15:58:26 -81.20, 161.70 96.50 3.23 19
5 09/25/2021 10:42:26 81.17, 59.87 84.50 09/25/2021 10:43:16 81.17, 59.96 84.53 1.61 50
6 09/25/2021 11:33:05 -81.20,-132.02 95.39 09/25/2021 11:32:42 -81.19,-132.06 95.41 0.93 23
7 09/28/2021 06:16:44 81.18, 126.62 85.66 09/28/2021 06:17:30 81.18, 126.52 85.66 1.91 46
8 09/28/2021 07:07:24 -81.20, -65.57 94.27 09/28/2021 07:06:56 -81.20, -65.49 94.27 1.46 28
9 10/01/2021 01:51:04 81.18,-167.02 86.76 10/01/2021 01:51:45 81.18,-166.96 86.79 0.97 41



Historial Predications of SNOs between METOP-C and LANDSAT-8
